Погода в Бакчаре

Погода в Бакчаре : погода сейчас, прогноз погоды и архив. Всё, что Вы хотите узнать о погоде в Бакчаре!

Хотите узнать прогноз погоды в Бакчаре? Тогда Вам сюда: Погода в Бакчаре

Поиск расширенной информации на нашем сайте:

Другие новости

Новости СМИ2

Главная страница сайта

Новости сайта

03.07.2017

Напоминаем, что на нашем специализированном сайте Метеоцентр.Азия вы можете получить высокодетализированные автоматические прогнозы погоды по пунктам России, СНГ и мира в авиационном формате (включающие направление и скорость ветра, видимость, явления погоды, количество и форму облачности, нижнюю и верхнюю границу облачности).

Рекомендуем: лучшие русские мелодрамы смотреть

Погода в Бакчаре - сегодня

Время (UTC), дата Ветер
(°,м/с) 
Видим.   Явления Облачность Т
(°С)
Тd
(°С)
f(%) Тe
(°С)
Pmin
(гПа)
dP
(гПа)
Po
(мм)
O2
(г/м3)
Тmin Tmax R s Состояние
почвы
21 15.04.18 190 (Ю) 20000 м    ясно 
+0.2 -3.5 76 -2  1003.6  -1.1  742  299           
00 16.04.18 180 (Ю) 20000 м    10/10 600 м кучево-дожд. 
[Cb cap]
+0.4 -2.7 80 -1  1002.4  -1.1  742  299  -0.2      38  мокрый или
старый снег
50-90% 
03 16.04.18 190 (Ю) 20000 м    10/10 600 м кучево-дожд. 
[Cb cap]
+3.1 -1.9 70 +2  1000.9  -1.4  741  295           
06 16.04.18 220 (ЮЗ) 4{10}  20000 м    10/8 600 м кучево-дожд., средняя 
[Cb cap|Ac As]
+6.2 -2.4 54 +5  999.5  -1.3  740  292           
09 16.04.18 180 (Ю) 4{11}  20000 м    10/10 300 м кучево-дожд. 
[Cb cap]
+2.6 +1 89 +1  999  -0.6  739  295           
12 16.04.18 200 (Ю) 20000 м  слаб. ливневой дождь  10/10 300 м кучево-дожд. 
[Cb cap]
+2.6 +1.2 90 +1  997.4  -1.5  738  294    +6.3     
15 16.04.18 200 (Ю) 20000 м  слаб. ливневой дождь  10/10 300 м кучево-дожд. 
[Cb cap]
+2.6 +1.3 91 +1  997  -0.4  738  294           
18 16.04.18 270 (З) 10 км  слаб. ливневой снег{морось}  10/10 600 м кучево-дожд. 
[Cb cap]
-1.3 -2.5 92 -4  1000.1  2.8  740  300           
00 17.04.18 210 (ЮЗ) 20000 м  {ливн. осадки}  8/0 кучево-дожд., средняя 
[Cb cap|Ac trans]
-3.9 -5.6 88 -5  1005.3  1.6  743  305  -5.1    0.5  38  мокрый или
старый снег
50-90% 
03 17.04.18 240 (ЮЗ) 20000 м  слаб. ливневой снег  10/8 300 м кучево-дожд., средняя 
[Cb cap|Ac trans]
-2.4 -4.8 84 -4  1006.4  1.2  744  303           
12 17.04.18 270 (З) 4{11}  20000 м  {ливн. осадки}  8/8 600 м кучево-дожд. 
[Cb cap]
-2.1 -7.2 68 -5  1013.1  2.9  749  305    +0.6     
18 17.04.18 280 (З) 20000 м  слаб. ливневой снег  8/8 300 м кучево-дожд. 
[Cb cap]
-5.6 -7.9 84 -7  1016.9  1.6  752  310           
21 17.04.18 260 (З) 20000 м  {ливн. осадки}  10/8 600 м кучево-дожд., средняя 
[Cb cap|Ac trans]
-6.4 -9.1 81 -8  1018.7  1.7  753  312           
00 18.04.18 260 (З) 20000 м  {ливн. осадки}  3/1 1500 м верхняя 
[Sc|Ci fib]
-9.7 -12.5 80 -11  1020.2  1.2  754  316  -10    0.6  38  равномерный
сухой снег
100% 
03 18.04.18 250 (З) 20000 м    4/4 600 м кучево-дожд. 
[Cb cap]
-5.4 -13 55 -8  1022  756  312           
06 18.04.18 260 (З) 20000 м    8/8 600 м кучево-дожд. 
[Cb cap]
-1.8 -14 39 -4  1021.9  0.1  756  308           
09 18.04.18 290 (З) 20000 м    8/8 600 м кучево-дожд. 
[Cb cap]
-0.2 -14.7 33 -3  1021.5  -0.3  756  306           
12 18.04.18 280 (З) 20000 м    8/6 600 м кучево-дожд., верхняя 
[Cb cap|Ci fib]
-0.4 -15.2 32 -2  1021.2  -0.3  755  306    +0       
15 18.04.18 230 (ЮЗ) 20000 м    ясно 
-4.7 -13.7 49 -4  1021.8  0.4  756  311           
18 18.04.18 тихо ()   20000 м    ясно 
-9.1 -13 73 -9  1022.2  0.2  756  316           
21 18.04.18 180 (Ю) 20000 м    ясно 
-12 -14 85 -12  1022.2  -0.2  756  320           
00 19.04.18 тихо ()   20000 м    ясно 
-13.6 -14.2 95 -14  1036.9  -0.3  755  322  -14.1      36  мокрый или
старый снег
50-90% 
03 19.04.18 170 (Ю) 20000 м    4/0 средняя, верхняя 
[Ac trans|Ci fib]
-3 -13.7 43 -3  1020.8  -0.7  755  309           
06 19.04.18 170 (Ю) 20000 м    8/6 600 м средняя 
[Cu hum|Ac trans]
+0.7 -10.8 42 -1  1018.8  -1.7  754  304           
09 19.04.18 170 (Ю) 20000 м    9/8 600 м кучево-дожд., средняя 
[Cb cap|Ac trans]
+2.6 -7.8 46 +1  1016.8  -1.8  752  301           
Время (UTC), дата Ветер
(°,м/с) 
Видим.   Явления Облачность Т
(°С)
Тd
(°С)
f(%) Тe
(°С)
Pmin
(гПа)
dP
(гПа)
Po
(мм)
O2
(г/м3)
Тmin Tmax R s Состояние
почвы

Для получения пояснительной информации подведите курсор к названию столбца.

ПОГОДА в Бакчаре - архив

Всё, что Вы хотите узнать о погоде в Бакчаре - удобно и подробно!

Выберите нужную дату (начиная с 1 января 2015* года) и нажмите кнопку "Найти".
Будут отображены архивные сводки погоды по пункту Бакчар, начиная с указанной даты.


Отображать данные в формате CSV (для использования в таблицах Excel)


Внимание! Наш архив погоды предназначен исключительно для личного некоммерческого использования в познавательных целях. Если Вам необходимы официальные справки о состоянии погоды (для производственных, юридических, коммерческих и т.п. целей), обращайтесь в органы Росгидромета.

*Примечание: данная дата относится к архиву по метеостанциям СССР (Россия, СНГ, Балтия).
Архив по метеостанциям Зарубежной Европы и Азии (кроме Китая) хранится 10 дней, по другим регионам земного шара (Китай, Африка, Америка, Австралия, Океания) - 1 день.

Бакчар - район местоположения метеостанции


Название, широта, долгота, высота метеостанции:
Бакчар 57.1°ш. 81.9°д. 110 м над ур. моря [Российская Федерация]

Дополнительная информация

В oтличие oт бoльшинства пoгoдных сайтoв мы публикуем пoдрoбную метеoинфoрмацию в детальнoм прoфессиoнальнoм фoрмате.

Характеристики температуры и влажнoсти вoздуха измеряются на высoте 2 м в тени вдали oт зданий и деревьев.
Скoрoсть ветра измеряется на высoте 10 м (на урoвне рoста челoвека скoрoсть ветра ниже в 1.5-2 раза). Если метеoстанция нахoдится в гoрoде или в лесу, тo скoрoсть ветра занижена на 2-4 м/с пo сравнению с oткрытым местoм. Скoрoсть ветра над акватoриями крупных рек и oзёр, а также на вершинах хoлмoв на 2-5 м/с выше, чем в oбычных услoвиях.
Атмoсфернoе давление в разных тoчках местнoсти мoжет значительнo oтличаться oт давления на метеoстанции, в зависимoсти oт услoвий рельефа (при пoдъёме на 10 м давление пoнижается примернo на 1 мм рт.ст.).